Weston, WY

5:27 AM MST on February 06, 2016 (GMT -0700)
Gillette-Campbell County

Weather History for KGCC - October, 2013

Change the Weather History Date:

Tuesday, October 22, 2013

  Actual Average Record
Temperature  
Mean Temperature 49 °F 43 °F  
Max Temperature 58 °F 57 °F 82 °F (2003)
Min Temperature 40 °F 30 °F 9 °F (2002)
Degree Days  
Heating Degree Days 16 22  
Month to date heating degree days 465 402  
Since 1 July heating degree days 606 697  
Cooling Degree Days 0 0  
Month to date cooling degree days 0 0  
Year to date cooling degree days 615 500  
Moisture  
Dew Point 37 °F    
Average Humidity 65    
Maximum Humidity 82    
Minimum Humidity 47    
Precipitation  
Precipitation 0.00 in 0.03 in 0.92 in (1986)
Month to date precipitation 2.62 1.02  
Year to date precipitation 18.43 12.69  
Sea Level Pressure  
Sea Level Pressure 30.08 in    
Wind  
Wind Speed 9 mph (WNW)    
Max Wind Speed 15 mph    
Max Gust Speed 18 mph    
Visibility 10 miles    
Events      
T = Trace of Precipitation, MM = Missing Value Source: NWS Daily Summary

Daily Weather History Graph

Daily Weather History Graph

Search for Another Location

Airport or City:

Trip Planner

Search our weather history database for the weather conditions in past years. The results will help you decide how hot, cold, wet, or windy it might be!

Date:

Astronomy

Oct. 22, 2013 Rise Set
Actual Time 7:26 AM MDT 6:05 PM MDT
Civil Twilight 6:56 AM MDT 6:35 PM MDT
Nautical Twilight 6:23 AM MDT 7:09 PM MDT
Astronomical Twilight 5:49 AM MDT 7:42 PM MDT
Moon 8:42 PM MDT (10/22) 11:02 AM MDT (10/22)
Length of Visible Light 11h 38m
Length of Day
10h 39m
Waning Gibbous, 86% of the Moon is Illuminated
Oct 22
Waning Gibbous
Oct 26
Last Quarter
Nov 3
New
Nov 9
First Quarter
Nov 17
Full

Hourly Weather History & Observations

Time (MDT) Temp. Windchill Dew Point Humidity Pressure Visibility Wind Dir Wind Speed Gust Speed Precip Events Conditions
12:53 AM 45.0 °F 40.1 °F 37.0 °F 74% 30.05 in 10.0 mi West 9.2 mph - N/A   Overcast
1:53 AM 45.0 °F 40.6 °F 37.0 °F 74% 30.06 in 10.0 mi West 8.1 mph - N/A   Overcast
2:53 AM 46.0 °F 41.0 °F 37.0 °F 71% 30.06 in 10.0 mi West 10.4 mph - N/A   Overcast
3:53 AM 43.0 °F 36.8 °F 36.0 °F 76% 30.06 in 10.0 mi West 11.5 mph - N/A   Mostly Cloudy
4:53 AM 45.0 °F 40.1 °F 36.0 °F 71% 30.07 in 10.0 mi West 9.2 mph - N/A   Overcast
5:53 AM 43.0 °F 36.8 °F 37.0 °F 80% 30.09 in 10.0 mi West 11.5 mph - N/A   Overcast
6:53 AM 45.0 °F 40.1 °F 37.0 °F 74% 30.09 in 10.0 mi West 9.2 mph - N/A   Overcast
7:53 AM 44.1 °F 38.6 °F 36.0 °F 73% 30.10 in 10.0 mi West 10.4 mph - N/A   Overcast
8:53 AM 46.0 °F 41.4 °F 36.0 °F 68% 30.12 in 10.0 mi West 9.2 mph - N/A   Partly Cloudy
9:53 AM 51.1 °F - 37.0 °F 59% 30.12 in 10.0 mi NW 11.5 mph - N/A   Partly Cloudy
10:53 AM 52.0 °F - 37.9 °F 59% 30.12 in 10.0 mi North 11.5 mph - N/A   Overcast
11:53 AM 54.0 °F - 37.9 °F 55% 30.10 in 10.0 mi North 9.2 mph - N/A   Clear
12:53 PM 55.9 °F - 37.9 °F 51% 30.08 in 10.0 mi NNW 5.8 mph - N/A   Unknown
1:53 PM 57.0 °F - 37.9 °F 49% 30.07 in 10.0 mi WNW 8.1 mph - N/A   Clear
2:53 PM 57.0 °F - 37.9 °F 49% 30.05 in 10.0 mi NW 9.2 mph - N/A   Clear
3:53 PM 57.9 °F - 37.9 °F 47% 30.06 in 10.0 mi NNW 11.5 mph - N/A   Clear
4:53 PM 57.0 °F - 37.9 °F 49% 30.05 in 10.0 mi NNW 5.8 mph - N/A   Clear
5:53 PM 45.0 °F 42.6 °F 37.9 °F 76% 30.09 in 10.0 mi West 4.6 mph - N/A   Clear
6:53 PM 44.1 °F - 37.0 °F 76% 30.06 in 10.0 mi Calm Calm - N/A   Clear
7:53 PM 43.0 °F 38.8 °F 37.0 °F 80% 30.08 in 10.0 mi WSW 6.9 mph - N/A   Clear
8:53 PM 43.0 °F 37.7 °F 37.0 °F 80% 30.07 in 10.0 mi West 9.2 mph - N/A   Clear
9:53 PM 43.0 °F 37.7 °F 37.0 °F 80% 30.07 in 10.0 mi West 9.2 mph - N/A   Clear
10:53 PM 45.0 °F 40.6 °F 37.9 °F 76% 30.07 in 10.0 mi West 8.1 mph - N/A   Clear
11:53 PM 46.0 °F 40.2 °F 37.0 °F 71% 30.06 in 10.0 mi WSW 12.7 mph - N/A   Overcast